RYR3LP EGSS-EIDW

Flight info

Callsign RYR3LP
Flight time N/A
Altitude 36000
Route NUGBO M183 SILVA P86 DIDZA N14 OKSAW DCT BIBPE DCT OKTAD DCT MEDOG DCT KRAGY DCT PEMOB M17 VATRY VATRY4L
Aircraft B738/M-SDE2E3FGHIRWXY/LB1

Departure

Time 2026-05-07 20:57
Airport London Stansted Airport (EGSS)

Arrival

Time N/A
Airport Dublin Airport (EIDW)
Time Latitude Longitude Altitude Speed Heading
2026-05-07 20:17 51.89276 0.26182 351 ft 0 kts 223°
2026-05-07 20:38 51.89278 0.26184 323 ft 2 kts 223°
2026-05-07 20:38 51.89290 0.26202 351 ft 2 kts 223°
2026-05-07 20:38 51.89302 0.26220 351 ft 2 kts 223°
2026-05-07 20:38 51.89313 0.26238 350 ft 2 kts 255°
2026-05-07 20:39 51.89314 0.26241 351 ft 0 kts 266°
2026-05-07 20:40 51.89314 0.26240 351 ft 0 kts 270°
2026-05-07 20:40 51.89320 0.26232 353 ft 0 kts 310°
2026-05-07 20:47 51.89320 0.26231 353 ft 1 kts 310°
2026-05-07 20:47 51.89335 0.26202 347 ft 5 kts 312°
2026-05-07 20:47 51.89360 0.26158 343 ft 5 kts 311°
2026-05-07 20:47 51.89386 0.26113 343 ft 7 kts 314°
2026-05-07 20:48 51.89435 0.26029 352 ft 15 kts 313°
2026-05-07 20:48 51.89512 0.25897 346 ft 16 kts 315°
2026-05-07 20:48 51.89495 0.25748 351 ft 16 kts 222°
2026-05-07 20:48 51.89414 0.25628 347 ft 17 kts 222°
2026-05-07 20:49 51.89319 0.25486 347 ft 19 kts 223°
2026-05-07 20:49 51.89224 0.25345 347 ft 18 kts 223°
2026-05-07 20:49 51.89132 0.25208 345 ft 18 kts 223°
2026-05-07 20:49 51.89044 0.25075 347 ft 17 kts 223°
2026-05-07 20:50 51.88959 0.24948 342 ft 16 kts 223°
2026-05-07 20:50 51.88879 0.24827 342 ft 16 kts 223°
2026-05-07 20:50 51.88800 0.24707 347 ft 15 kts 223°
2026-05-07 20:50 51.88725 0.24595 346 ft 14 kts 221°
2026-05-07 20:51 51.88653 0.24488 347 ft 14 kts 223°
2026-05-07 20:51 51.88584 0.24384 346 ft 13 kts 223°
2026-05-07 20:51 51.88518 0.24285 345 ft 13 kts 223°
2026-05-07 20:51 51.88448 0.24181 339 ft 16 kts 223°
2026-05-07 20:52 51.88355 0.24042 335 ft 20 kts 223°
2026-05-07 20:52 51.88257 0.23895 336 ft 19 kts 223°
2026-05-07 20:52 51.88159 0.23747 337 ft 21 kts 222°
2026-05-07 20:52 51.88043 0.23576 335 ft 23 kts 223°
2026-05-07 20:53 51.87928 0.23403 336 ft 22 kts 223°
2026-05-07 20:53 51.87817 0.23235 336 ft 22 kts 223°
2026-05-07 20:53 51.87733 0.23054 334 ft 19 kts 275°
2026-05-07 20:53 51.87769 0.22872 334 ft 18 kts 235°
2026-05-07 20:54 51.87679 0.22731 333 ft 18 kts 223°
2026-05-07 20:54 51.87590 0.22597 332 ft 17 kts 222°
2026-05-07 20:54 51.87517 0.22474 333 ft 13 kts 252°
2026-05-07 20:54 51.87556 0.22357 330 ft 8 kts 313°
2026-05-07 20:55 51.87581 0.22313 330 ft 1 kts 313°
2026-05-07 20:55 51.87584 0.22308 330 ft 0 kts 313°
2026-05-07 20:56 51.87599 0.22284 326 ft 9 kts 320°
2026-05-07 20:56 51.87687 0.22271 326 ft 15 kts 20°
2026-05-07 20:56 51.87767 0.22380 331 ft 17 kts 44°
2026-05-07 20:56 51.88048 0.22802 334 ft 95 kts 43°
2026-05-07 20:57 51.88711 0.23777 378 ft 157 kts 45°
2026-05-07 20:57 51.89549 0.25033 1046 ft 169 kts 46°
2026-05-07 20:57 51.90423 0.26399 1874 ft 178 kts 48°
2026-05-07 20:57 51.91336 0.27839 2696 ft 192 kts 46°
2026-05-07 20:58 51.92363 0.29295 3619 ft 198 kts 34°
2026-05-07 20:58 51.93638 0.30160 4520 ft 206 kts
2026-05-07 20:58 51.95139 0.29962 4852 ft 233 kts 338°
2026-05-07 20:58 51.96492 0.28385 5323 ft 256 kts 308°
2026-05-07 20:59 51.97211 0.25706 6129 ft 264 kts 281°
2026-05-07 20:59 51.97491 0.22766 7176 ft 266 kts 276°
2026-05-07 20:59 51.97713 0.19766 7785 ft 269 kts 277°
2026-05-07 20:59 51.97943 0.16759 8368 ft 276 kts 276°
2026-05-07 21:00 51.98212 0.13666 9425 ft 277 kts 277°
2026-05-07 21:00 51.98522 0.10544 10320 ft 284 kts 278°
2026-05-07 21:00 51.98849 0.07363 11186 ft 288 kts 276°
2026-05-07 21:00 51.98761 0.04137 12093 ft 288 kts 257°
2026-05-07 21:01 51.98334 0.00946 13020 ft 291 kts 256°
2026-05-07 21:01 51.97908 -0.02284 13947 ft 295 kts 256°
2026-05-07 21:01 51.97485 -0.05566 14751 ft 298 kts 256°
2026-05-07 21:01 51.97056 -0.08898 15397 ft 309 kts 256°
2026-05-07 21:02 51.96591 -0.12462 15578 ft 335 kts 256°
2026-05-07 21:02 51.96097 -0.16231 15753 ft 358 kts 257°
2026-05-07 21:02 51.95567 -0.20272 16126 ft 373 kts 257°
2026-05-07 21:02 51.95025 -0.24417 16812 ft 378 kts 257°
2026-05-07 21:03 51.94485 -0.28534 17605 ft 380 kts 257°
2026-05-07 21:03 51.93933 -0.32743 18383 ft 382 kts 257°
2026-05-07 21:03 51.93375 -0.36977 19016 ft 386 kts 257°
2026-05-07 21:03 51.92810 -0.41248 19655 ft 389 kts 257°
2026-05-07 21:04 51.92241 -0.45543 20300 ft 392 kts 257°
2026-05-07 21:04 51.91662 -0.49891 20920 ft 396 kts 257°
2026-05-07 21:04 51.91077 -0.54275 21528 ft 399 kts 257°
2026-05-07 21:04 51.90492 -0.58639 22127 ft 402 kts 257°
2026-05-07 21:05 51.89895 -0.63084 22710 ft 406 kts 257°
2026-05-07 21:05 51.89301 -0.67495 23255 ft 409 kts 257°
2026-05-07 21:05 51.88689 -0.72024 23776 ft 413 kts 257°
2026-05-07 21:05 51.88070 -0.76595 24247 ft 415 kts 256°
2026-05-07 21:06 51.87448 -0.81172 24723 ft 418 kts 256°
2026-05-07 21:06 51.86822 -0.85775 25170 ft 420 kts 256°
2026-05-07 21:06 51.86188 -0.90405 25622 ft 423 kts 256°
2026-05-07 21:06 51.85501 -0.95039 26055 ft 425 kts 251°
2026-05-07 21:07 51.84370 -0.99454 26464 ft 426 kts 242°
2026-05-07 21:07 51.82815 -1.03546 26880 ft 428 kts 233°
2026-05-07 21:07 51.81057 -1.06869 27259 ft 430 kts 226°
2026-05-07 21:07 51.78941 -1.10283 27806 ft 429 kts 225°
2026-05-07 21:08 51.76818 -1.13645 28433 ft 426 kts 225°
2026-05-07 21:08 51.74712 -1.16994 29037 ft 424 kts 225°
2026-05-07 21:08 51.72621 -1.20356 29621 ft 423 kts 225°
2026-05-07 21:08 51.70546 -1.23719 30153 ft 422 kts 225°
2026-05-07 21:09 51.68485 -1.27068 30636 ft 421 kts 225°
2026-05-07 21:09 51.66454 -1.30363 31103 ft 419 kts 225°
2026-05-07 21:09 51.64599 -1.33962 31515 ft 419 kts 239°
2026-05-07 21:09 51.63494 -1.38300 31932 ft 420 kts 256°
2026-05-07 21:10 51.63190 -1.42953 32406 ft 421 kts 270°
2026-05-07 21:10 51.63599 -1.47616 32847 ft 424 kts 284°
2026-05-07 21:10 51.64772 -1.51983 33242 ft 427 kts 296°
2026-05-07 21:10 51.66220 -1.56171 33661 ft 427 kts 297°
2026-05-07 21:11 51.67665 -1.60343 34070 ft 426 kts 296°
2026-05-07 21:11 51.69072 -1.64538 34416 ft 425 kts 294°
2026-05-07 21:11 51.70854 -1.73524 34955 ft 421 kts 275°
2026-05-07 21:12 51.71066 -1.76630 35170 ft 420 kts 274°